Tracking 30072 objects as of 15-Jan-2025
HD Live streaming from Space Station
objects crossing your sky now

EUTE 8 WEST A (AB 2)

Track EUTE 8 WEST A (AB 2) now!
EUTE 8 WEST A (AB 2) is classified as:


NORAD ID: 26927
Int'l Code: 2001-042A
Perigee: 36,247.3 km
Apogee: 36,333.5 km
Inclination: 5.3 °
Period: 1,461.5 minutes
Semi major axis: 42661 km
RCS: 14.2528 m2 (large)
Launch date: September 25, 2001
Source: European Telecommunications Satellite Organization (EUTE)
Launch site: FRENCH GUIANA (FRGUI)

European and American coverage.
Your satellite tracking list
Your tracking list is empty




NASA's NSSDC Master Catalog

Two Line Element Set (TLE):
1 26927U 01042A   25014.23310017 -.00000024  00000-0  00000-0 0  9999
2 26927   5.2825  76.9239 0010105 207.2137 187.0319  0.98525991 85049
Source of the keplerian elements: AFSPC